Location: Home
(42.5358°N, 72.7383°W)
Time: 09:18:20
(UTC-04:00)

A-11 Canister half - Pass Details

Date: 29 June 2022
Orbit: 1514 x 1685 km, 47.2° (Epoch: 15 August)

Event Time Altitude Azimuth Distance (km) Brightness Sun altitude
Rises 00:09:53 0° 243° (WSW) 4,933 11.5 -23.4°
Reaches altitude 10° 00:13:03 10° 244° (WSW) 3,944 11.0 -23.5°
Maximum altitude 00:23:16 90° 180° (S) 1,671 9.1 -23.8°
Drops below altitude 10° 00:33:16 10° 67° (ENE) 3,867 11.3 -24.1°
Sets 00:36:20 0° 68° (ENE) 4,833 11.8 -24.1°
